Satellite-Ground Cal/Val Region Overpasses Predictions

Prediction of Satellite NPP Overpassing Cal/Val Region: PacN

Region Location: (Latitude: 15.00, Longitude: 179.40) to (Latitude: 23.50, Longitude: 200.60).

Table of predicted overpasses for the next 14.0 days since TLE Epoch: 11/16/2024
Interval Starting Time Starting Location Ending Time Ending Location
1 11/18/2024 01:17:36 ( 15.01, 179.46) 11/18/2024 01:17:40 ( 15.25, 179.41)
2 11/24/2024 13:36:30 ( 18.32, 179.99) 11/24/2024 13:37:12 ( 15.85, 179.40)
3 11/29/2024 01:12:22 ( 19.68, 179.99) 11/29/2024 01:13:03 ( 22.08, 179.40)
